EW4354 Weather Reports


time (UTC)temp
C
wind
direction
speed
KPH
gust
KPH
rain 1hr
cm
rain 24hr
cm
rain mn
cm
humidity
%
barometer
mb
20260504100403 8 234 4.8 4.8 0.00 0.00 0.00 60 1011.0
20260504045915 5 98 3.2 4.8 0.00 0.00 0.00 73 1011.6
20260504044403 5 98 3.2 4.8 0.00 0.00 0.00 71 1011.7
20260504043914 5 98 1.6 4.8 0.00 0.00 0.00 70 1011.7
20260504043426 5 98 3.2 4.8 0.00 0.00 0.00 70 1011.7
20260504031903 5 274 3.2 4.8 0.00 0.00 0.00 66 1011.3
20260504031404 5 274 1.6 3.2 0.00 0.00 0.00 66 1011.4
20260504023903 6 274 1.6 4.8 0.00 0.00 0.00 58 1011.1
20260504023406 7 274 1.6 3.2 0.00 0.00 0.00 56 1011.2
20260504022903 7 274 1.6 1.6 0.00 0.00 0.00 56 1011.2
20260504022404 7 274 1.6 1.6 0.00 0.00 0.00 53 1011.3
20260504021903 7 274 1.6 1.6 0.00 0.00 0.00 54 1011.3
20260504020403 7 274 0.0 3.2 0.00 0.00 0.00 53 1011.4
20260504015903 7 274 0.0 0.0 0.00 0.00 0.00 52 1011.4
20260504015403 8 274 0.0 0.0 0.00 0.00 0.00 51 1011.4
20260503233428 11 335 3.2 11.3 0.00 0.00 0.00 37 1009.8
20260503213903 13 14 6.4 16.1 0.00 0.00 0.00 31 1009.3
20260503205403 13 281 8.0 12.9 0.00 0.00 0.00 35 1009.2
20260503204903 13 328 3.2 12.9 0.00 0.00 0.00 37 1009.2
20260503193904 11 352 4.8 16.1 0.00 0.00 0.00 42 1010.1
20260503193405 11 273 9.7 22.5 0.00 0.00 0.00 40 1010.1
20260503192903 11 299 11.3 19.3 0.00 0.00 0.00 39 1010.2
20260503192405 11 280 8.0 19.3 0.00 0.00 0.00 42 1010.2
20260503191903 11 286 8.0 11.3 0.00 0.00 0.00 43 1010.2
20260503191403 11 276 6.4 19.3 0.00 0.00 0.00 44 1010.3
20260503190404 10 27 3.2 12.9 0.00 0.00 0.00 44 1010.3
20260503185904 10 257 3.2 14.5 0.00 0.00 0.00 43 1010.4
20260503184904 10 291 6.4 14.5 0.00 0.00 0.00 43 1010.7
20260503184403 10 337 8.0 24.1 0.00 0.00 0.00 44 1010.7
20260503183405 10 319 4.8 14.5 0.00 0.00 0.00 47 1010.7
20260503182404 10 305 6.4 14.5 0.00 0.00 0.00 44 1010.7
20260503181904 10 314 6.4 16.1 0.00 0.00 0.00 44 1010.7
20260503181403 10 335 4.8 12.9 0.00 0.00 0.00 44 1010.8
20260503180904 10 289 8.0 19.3 0.00 0.00 0.00 41 1010.8
20260503180403 10 9 4.8 20.9 0.00 0.00 0.00 42 1010.7
20260503175905 10 309 11.3 25.7 0.00 0.00 0.00 42 1010.6
20260503174903 9 285 12.9 19.3 0.00 0.00 0.00 42 1010.8
20260503174405 9 288 14.5 29.0 0.00 0.00 0.00 41 1010.7
20260503172904 9 295 9.7 19.3 0.00 0.00 0.00 43 1010.8
20260503172404 9 299 9.7 27.4 0.00 0.00 0.00 44 1010.8
20260503171903 9 294 9.7 22.5 0.00 0.00 0.00 44 1010.8
20260503171403 9 286 14.5 24.1 0.00 0.00 0.00 44 1010.8
20260503170903 9 346 8.0 24.1 0.00 0.00 0.00 45 1010.8
20260503170405 9 297 14.5 19.3 0.00 0.00 0.00 43 1010.8
20260503150903 8 299 6.4 16.1 0.00 0.00 0.00 52 1011.0
20260503131403 6 278 4.8 9.7 0.00 0.00 0.00 71 1011.8
20260503130403 6 283 3.2 4.8 0.00 0.00 0.00 73 1011.7